Tracking 29777 objects as of 4-Oct-2024
HD Live streaming from Space Station
objects crossing your sky now

BREEZE-M DEB (TANK)

Track BREEZE-M DEB (TANK) now!
10-day predictions


NORAD ID: 40386
Int'l Code: 2015-005C
Perigee: 375.3 km
Apogee: 14,609.8 km
Inclination: 50.7 °
Period: 270.8 minutes
Semi major axis: 13863 km
RCS: Unknown
Launch date: February 1, 2015
Source: Commonwealth of Independent States (former USSR) (CIS)
Launch site: TYURATAM MISSILE AND SPACE COMPLEX (TTMTR)

Note: This is SATELLITE DEBRIS
Your satellite tracking list
Your tracking list is empty




NASA's NSSDC Master Catalog

Two Line Element Set (TLE):
1 40386U 15005C   24278.37367288  .00004625  00000-0  19997-2 0  9993
2 40386  50.6602 163.2863 5133760 138.2256 275.2225  5.31851211182635
Source of the keplerian elements: AFSPC